Tracking 31027 objects as of 19-Jul-2025
HD Live streaming from Space Station
objects crossing your sky now

COSMOS 1691 DEB

Track COSMOS 1691 DEB now!
10-day predictions


NORAD ID: 16272
Int'l Code: 1985-094R
Perigee: 1,337.0 km
Apogee: 1,399.8 km
Inclination: 82.6 °
Period: 112.9 minutes
Semi major axis: 7739 km
RCS: 0.0423 m2 (small)
Launch date: October 9, 1985
Source: Commonwealth of Independent States (former USSR) (CIS)
Launch site: PLESETSK MISSILE AND SPACE COMPLEX (PKMTR)

Note: This is SATELLITE DEBRIS
Your satellite tracking list
FENGYUN 1C DEB
Track 1 satellite(s)




NASA's NSSDC Master Catalog

Two Line Element Set (TLE):
1 16272U 85094R   25199.41509527  .00000208  00000-0  92522-3 0  9996
2 16272  82.6197 353.4412 0040584  10.3925  17.8937 12.75086676845477
Source of the keplerian elements: AFSPC